www.pogodaiklimat.ru

ПОГОДА в Мейфилде, KY

  • Прогноз погоды в Мейфилде
  • Монитор погоды в Мейфилде
  • Климат в Мейфилде

АРХИВ ПОГОДЫ в Мейфилде

Время (UTC), дата Ветер
(напр.,м/с)
 
Видим.   Явления Облачность Т
(С)
Тd
(С)
f
(%)
Тe
(С)
Тes
(С)
Комфортность

P
(гПа)

Po
(гПа)
Тmin
(С)
Tmax
(С)
R
(мм)
SD
(см)
09:35 23.03 В  16 км    ясно  +3.0  0.0  81  -1  -1      1005.4         
09:55 23.03 В  16 км    ясно  +3.0  0.0  81  -1  -1      1005.4         
10:15 23.03 В  16 км    ясно  +2.0  0.0  87  -2  -2      1005.8         
10:35 23.03 В  16 км    ясно  +2.0  0.0  87  -2  -2      1005.8         
10:55 23.03 В  16 км    ясно  +2.0  -1.0  80  -2  -2      1006.1         
11:15 23.03 В  16 км    ясно  +3.0  -1.0  75  -0  -0      1006.4         
11:35 23.03 В  16 км    ясно  +2.0  0.0  87  -2  -2      1006.8         
11:55 23.03 В  16 км    ясно  +5.0  -1.0  65  +3  +3      1007.1         
12:15 23.03 В  16 км    ясно  +6.0  -1.0  61  +4  +5      1007.4         
12:35 23.03 В  16 км    ясно  +6.0  0.0  65  +3  +4      1007.4         
12:55 23.03 В  16 км    ясно  +8.0  0.0  57  +5  +6      1007.4         
13:15 23.03 В  4
{8} 
16 км    ясно  +8.0  -1.0  53  +5  +7      1007.4         
13:35 23.03 ЮВ  16 км    ясно  +10.0  -2.0  43  +8  +11      1007.8         
13:55 23.03 В  4
{7} 
16 км    ясно  +10.0  -3.0  40  +8  +10      1007.8         
14:15 23.03 В  16 км    ясно  +10.0  -2.0  43  +8  +12      1007.8         
14:35 23.03 В  16 км    ясно  +11.0  -3.0  37  +9  +15      1008.1         
14:55 23.03 Ю  16 км    ясно  +11.0  -3.0  37  +9  +13      1008.1         
15:15 23.03 ЮВ  16 км    ясно  +12.0  -2.0  38  +11  +19      1008.1         
15:35 23.03 ЮВ  16 км    ясно  +12.0  -2.0  38  +11  +19      1008.1         
15:55 23.03 ЮВ  16 км    ясно  +12.0  -2.0  38  +11  +21  опасность
простуды 
  1007.8         
16:15 23.03 Ю  16 км    ясно  +13.0  -1.0  38  +12  +21      1007.8         
16:35 23.03 Ю  16 км    ясно  +12.0  -2.0  38  +10  +19      1007.4         
16:55 23.03 ЮВ  16 км    ясно  +13.0  -2.0  35  +12  +22      1007.1         
17:15 23.03 ЮВ  16 км    ясно  +14.0  -1.0  36  +13  +21      1007.1         
17:35 23.03 В  16 км    ясно  +14.0  -2.0  33  +13  +24  опасность
простуды 
  1006.4         
17:55 23.03 В  16 км    ясно  +15.0  -2.0  31  +14  +25  опасность
простуды 
  1005.8         
18:15 23.03 В  16 км    ясно  +16.0  -1.0  31  +16  +26      1005.8         
18:35 23.03 В  16 км    ясно  +16.0  -2.0  29  +16  +27      1005.1         
18:55 23.03 ЮВ  16 км    ясно  +16.0  -1.0  31  +16  +28  опасность
простуды 
  1004.8         
19:15 23.03 В  16 км    ясно  +17.0  -1.0  29  +16  +23      1004.8         
19:35 23.03 В  16 км    ясно  +17.0  -2.0  27  +17  +25      1004.4         
19:55 23.03 В  16 км    ясно  +17.0  -2.0  27  +17  +25      1004.4         
20:15 23.03 В  16 км    ясно  +17.0  -2.0  27  +16  +21      1004.4         
20:35 23.03 ЮВ  16 км    ясно  +17.0  -2.0  27  +17  +23      1004.1         
20:55 23.03 В  16 км    ясно  +17.0  -2.0  27  +18  +25      1004.1         
21:15 23.03   16 км    ясно  +17.0  -2.0  27  +17  +22      1004.1         
21:35 23.03 ЮВ  16 км    ясно  +16.0  -1.0  31  +16  +20      1004.1         
21:55 23.03   16 км    ясно  +16.0  -1.0  31  +16  +21      1004.4         
22:15 23.03   16 км    ясно  +16.0  -1.0  31  +16  +17      1004.4         
22:35 23.03   16 км    ясно  +16.0  -1.0  31  +16  +17      1004.4         
22:55 23.03   16 км    ясно  +15.0  -1.0  33  +15  +16      1004.4         
23:15 23.03   16 км    ясно  +15.0  0.0  36  +15  +15      1004.1         
23:35 23.03 В  16 км    ясно  +13.0  0.0  41  +13  +13      1004.1         
23:55 23.03 В  16 км    ясно  +13.0  0.0  41  +12  +12      1004.1         
00:15 24.03 В  16 км    ясно  +13.0  -1.0  38  +12  +12      1003.8         
00:35 24.03 В  16 км    ясно  +13.0  -1.0  38  +12  +12      1003.4         
00:55 24.03 В  16 км    ясно  +13.0  -1.0  38  +11  +11      1003.1         
01:15 24.03 В  16 км    5/0 3600 м
[средняя] 
+13.0  -1.0  38  +12  +12      1003.1         

 

Местоположение метеостанции Mayfield Graves County Airport: широта 36.7691 долгота -88.5847 высота над уровнем моря 159 м.

В архиве по умолчанию представлена погода в Мейфилде за последние 1-2 суток. Обновление информации о фактической погоде в базе происходит ежечасно! Архивные данные за месяц целиком и за предыдущие месяцы Вы можете получить, выбрав интересующий диапазон дат из раскрывающегося списка и нажав кнопку "Ввод!".

Внимание! Архив погоды МЕТАР в базе сайта хранится не более 60 дней. Нет смысла пытаться выбрать более раннюю дату.

Внимание! Время в таблицах - всемирное. Для получения местного времени необходимо прибавить поправку, которая в Мейфилде равна -6 ч.

Ветер - указаны скорость ветра в м/с и направление, откуда дует ветер: С - северный, СВ - северо-восточный, В - восточный, ЮВ - юго-восточный, Ю - южный, ЮЗ - юго-западный, З - западный, СЗ - северо-западный.
Видимость - горизонтальная дальность видимости в метрах или километрах. При видимости от 1 до 10 км при отсутствии осадков обычно наблюдается дымка, при ухудшении видимости до 1 км и менее - туман. В сухую погоду видимость может ухудшаться дымом, пылью или мглою.
Атмосферные явления - указаны явления, наблюдавшиеся в указанный момент времени.
Облачность - указаны через наклонную черту верхняя и нижняя облачность в баллах и высота нижней границы облаков в метрах. Внимание: облачность, как и прочие метеорологические величины в США измеряются автоматическими метеостанциями. Указанные значения в баллах носят условный характер и показывают процент времени, в течение которого, в среднем, лазерный луч высотомера отражался от облаков обратно.
T - Температура воздуха - температура, измеренная на высоте 2 м над землей.
Td - Температура точки росы - температура, при понижении до которой содержащийся в воздухе водяной пар достигнет насыщения.
f - Относительная влажность воздуха - влажноcть воздуха, измеренная на высоте 2 м над землей.
Te - Эффективная температура - температура, которую ощущает одетый по сезону человек в тени. Характеристика душности погоды. При расчете учитывается влияние влажности воздуха и скорости ветра на теплоощущения человека.
Tes - Эффективная температура на солнце - температура, которую ощущает человек, с поправкой на солнечный нагрев. Характеристика знойности погоды. Зависит от высоты солнца над горизонтом, облачности и скорости ветра. Ночью, в пасмурную погоду, а также при ветре 12 м/с и более поправка равна нулю.
P - Атмосферное давление - приведенное к уровню моря атмосферное давление.
Po - Атмосферное давление - измеренное на уровне метеостанции атмосферное давление.
Tmin - Минимальная температура - минимум температуры воздуха на высоте 2 м над землей.
Tmax - Максимальная температура - максимум температуры воздуха на высоте 2 м над землей.
R - Количество осадков - Количество выпавших осадков за 3 или 6 часов, мм.
SD - Снежный покров - Высота снежного покрова, см.